Retour au catalogue

CZ-6A DEB

ActifPO
NORAD 55556·DEBRIS·🇨🇳 China

Lancé Nov 11, 2022 depuis Taiyuan Satellite Launch Center

Loading…

Prochains Passages (prochaines 24 heures)

TLE

FraisSource: Space-Track

Époque: Sep 14, 2026, 04:03 UTC

1 55556U 22151ZE  26257.16918592  .00009640  00000-0  12825-2 0  9999
2 55556  98.6255 334.0039 0061960 349.1516  10.8353 14.78598608203580

Suivez CZ-6A DEB en temps réel avec AllMySat

Download on the App Store